Location: Radford
(37.1320°N, 80.5770°W)
Time: 22:41:15
(UTC-04:00)

Daily predictions for brighter satellites

Satellite Brightness Start Highest point End
(mag) Time Altitude Azimuth Time Altitude Azimuth Time Altitude Azimuth
H-2A R/B 3.7 21:10:38 10° ESE 21:14:26 20° ENE 21:18:17 10° NNE
GENESIS II 4.3 21:10:53 10° SSW 21:14:39 52° ESE 21:18:28 10° NE
Cosmos 1825 Rocket 4.0 21:16:49 10° SSE 21:21:02 43° E 21:25:15 10° NNE
Cosmos 1378 4.5 21:18:19 10° SSW 21:21:52 43° W 21:25:25 10° N
Cosmos 1238 Rocket 3.8 21:19:49 10° SE 21:21:53 18° E 21:23:59 10° NE
Centaur D-1A AC-31 3.3 21:23:23 10° SW 21:24:08 10° SSW 21:24:51 10° SSW
Cosmos 1939 Rocket 3.4 21:20:41 10° S 21:24:44 61° W 21:28:44 10° NNW
Lacrosse 5 1.9 21:19:46 10° SW 21:24:50 90° NW 21:29:56 10° NE
NOSS 8 (A) 4.3 21:24:15 10° SSW 21:27:40 89° WNW 21:30:49 10° NNE
BREEZE-M DEB (TANK) 4.2 21:12:49 10° SW 21:29:07 85° SE 21:33:19 10° NE
Thor Agena Rocket 3.9 21:24:24 10° N 21:29:29 72° WNW 21:34:29 10° SSW
Cosmos 1707 3.4 21:26:14 10° SSW 21:30:02 57° W 21:33:50 10° N
ATLAS 2AS CENTAUR R/B 3.1 21:23:41 10° S 21:31:08 57° ESE 21:39:00 10° NE
Cosmos 1674 4.3 21:33:13 11° SE 21:35:33 18° E 21:38:14 10° NE
Cosmos 2285 Rocket 4.0 21:33:38 10° S 21:39:52 64° ESE 21:46:06 10° NNE
Iridium 4 Rocket 3.7 21:40:25 10° S 21:46:05 72° E 21:51:22 10° N
Cosmos 1315 Rocket 2.8 21:43:05 10° S 21:47:07 78° E 21:51:13 10° NNE
Cosmos 2266 Rocket 4.1 21:41:24 10° N 21:47:49 85° W 21:54:07 10° S
ERS-2 2.6 21:46:20 10° S 21:49:58 59° WSW 21:53:36 10° NNW
ERS-1 Rocket 4.0 21:46:45 14° ESE 21:50:18 30° ENE 21:54:38 10° N
Cosmos 1953 4.4 21:47:12 10° NNW 21:50:32 26° W 21:53:54 10° SSW
Cosmos 1726 4.0 21:50:23 10° NE 21:52:44 16° ENE 21:54:03 14° E
Cosmos 2278 Rocket 3.6 21:52:54 15° SE 21:55:01 19° E 21:58:50 10° ENE
ARGOS 3.2 21:55:07 14° SSE 21:59:48 66° ENE 22:05:11 10° N
USA 215 3.4 21:55:58 15° SE 22:01:35 75° SW 22:08:10 10° NW
Nadezhda 2 Rocket 4.5 21:58:42 10° N 22:04:56 71° E 22:10:12 15° SSE
Cosmos-2242 3.2 22:01:05 10° N 22:05:25 55° E 22:08:12 21° SSE
Cosmos 2084 3.5 22:01:45 10° NNW 22:05:31 51° NE 22:07:37 23° ESE
MetOp-A 4.1 22:03:46 16° SSE 22:08:09 75° ENE 22:13:31 10° N
Cosmos 1437 2.6 22:05:42 10° N 22:08:52 67° E 22:10:22 28° SSE
NOSS 3-4 (A) 4.3 22:04:53 14° SSE 22:08:54 28° ESE 22:14:06 10° NE
NOSS 3-4 (C) 4.3 22:05:10 15° SSE 22:09:00 27° ESE 22:14:09 10° NE
COSMOS 2406 4.0 22:06:41 10° N 22:12:01 38° ENE 22:15:22 20° ESE
Cosmos 1844 Rocket 2.7 22:08:23 10° SSW 22:14:02 85° WNW 22:19:45 10° NNE
Cosmos 1844 3.6 22:11:28 10° SSW 22:17:08 77° ESE 22:22:53 10° NNE
Cosmos 1553 Rocket 4.1 22:13:27 16° SSE 22:18:07 54° E 22:24:01 10° NNE
Helios 1A 4.1 22:18:52 23° ESE 22:20:23 30° ENE 22:24:03 10° N
Timation 1 Rocket 4.3 22:14:54 10° SSW 22:20:51 88° WNW 22:26:52 10° NNE
Terra 3.5 22:19:14 15° E 22:21:00 19° ENE 22:24:14 10° NNE
KORONAS-FOTON 4.0 22:19:26 28° SSE 22:21:15 53° E 22:25:05 10° NNE
Cosmos 1346 Rocket 2.8 22:19:39 10° N 22:23:41 87° WSW 22:25:54 26° S
Helios 1B rocket 3.4 22:24:42 10° NE 22:28:14 27° E 22:28:28 27° ESE
Meteor 1-24 Rocket 4.4 22:24:30 10° SSW 22:30:27 61° W 22:36:25 10° N
ATLAS 5 CENTAUR R/B 3.1 22:34:18 20° E 22:34:18 20° E 22:36:45 10° ENE
CSL-04 DEB 4.3 22:32:51 37° SSE 22:34:16 71° ENE 22:38:11 10° N
APEX 4.4 22:34:43 10° N 22:37:28 24° ENE 22:37:54 24° ENE
Iridium 81 3.8 22:38:08 67° WNW 22:38:08 67° WNW 22:40:45 10° N
Resurs 01 Rocket 4.3 22:38:53 10° WSW 22:41:03 13° W 22:43:13 10° WNW
Cosmos 2082 Rocket 4.2 22:41:04 10° NNE 22:44:30 16° NE 22:47:15 12° E
OAO 3 Rocket 3.2 22:42:04 10° W 22:46:59 65° S 22:48:39 39° ESE
Cosmos 1110 Rocket 3.9 22:42:28 10° NNW 22:47:39 81° WSW 22:49:56 34° S
Cosmos 1908 3.5 22:45:18 10° NNW 22:49:07 62° W 22:50:28 37° SSW
Cosmos 1626 3.8 22:52:55 21° ENE 22:52:55 21° ENE 22:55:03 10° NE
SPOT 1/Viking Rocket 3.5 22:51:14 38° SSE 22:53:13 76° ENE 22:58:22 10° N
H-2A R/B 2.9 22:50:00 20° SSW 22:53:25 47° W 22:58:37 10° NNW
Cosmos 2221 3.3 22:50:56 10° NNE 22:54:52 33° ENE 22:55:11 33° E
ATLAS 3B R/B 2.7 22:49:07 10° NNW 22:55:41 66° NE 22:58:38 34° SE
USA 238 DEB 3.8 22:50:13 10° NNW 22:57:26 89° ENE 23:00:55 34° SSE
USA 238 3.8 22:50:20 10° NNW 22:57:32 89° NE 23:01:01 34° SSE
CZ-2C R/B 3.5 22:53:30 10° NE 22:58:09 29° E 22:58:20 29° E
SPOT 5 2.9 22:57:07 40° SSE 22:59:02 90° ENE 23:04:18 10° NNW
Cosmos 921 Rocket 3.8 22:55:23 10° NNW 22:59:43 48° W 23:01:23 32° SSW
Cosmos 1340 2.6 22:56:02 10° N 22:59:50 83° W 23:00:19 66° S
Cosmos 1331 Rocket 4.1 22:55:51 10° NNW 23:01:02 69° WSW 23:03:00 38° S
NOSS 2-2 (C) 4.5 23:05:33 30° ENE 23:05:33 30° ENE 23:08:00 10° NE
RESURS DK-1 4.5 23:08:17 15° ENE 23:08:17 15° ENE 23:09:24 10° NE
ATLAS 3B CENTAUR R/B 3.8 22:52:17 10° SW 23:08:20 40° S 23:11:02 34° SE
NOSS 3-2 (A) 4.1 23:02:07 10° NNW 23:09:47 72° ENE 23:13:40 35° SE
BREEZE-M DEB (TANK) 4.1 22:59:56 10° SW 23:12:05 65° SE 23:16:17 10° ENE
Cosmos 1461 3.3 23:12:25 26° SW 23:15:01 74° WNW 23:19:48 10° NNE
Cosmos 1745 Rocket 4.1 23:09:28 10° N 23:15:47 76° W 23:18:29 36° S
Cosmos 1300 2.6 23:12:58 10° N 23:16:38 77° NE 23:16:38 77° NE
Nimbus 7 Rocket 4.4 23:17:43 10° NNE 23:23:45 72° ESE 23:25:33 47° S
IGS 5A 3.4 23:26:14 73° SW 23:26:23 75° WSW 23:30:33 10° NNW
CARTOSAT-1 3.5 23:26:57 72° SW 23:27:15 76° WSW 23:31:35 10° NNW
Cosmos 1328 4.2 23:28:08 52° NE 23:28:08 52° NE 23:31:21 10° NNE
Cosmos 1726 3.8 23:24:49 10° NNW 23:27:59 26° W 23:28:37 25° WSW
Cosmos 1302 Rocket 4.1 23:23:58 10° NNW 23:29:14 70° WSW 23:30:15 55° SSW
Aureole 3 Rocket 4.2 23:31:01 42° SSE 23:33:47 72° E 23:39:46 10° NNE
NOSS 3-2 (C) 4.1 23:27:17 10° NNW 23:35:00 76° ENE 23:38:11 42° SE
Cosmos 2278 Rocket 2.8 23:34:38 19° SW 23:38:35 53° WNW 23:44:09 10° NNE
Cosmos 1076 Rocket 3.6 23:44:20 71° NW 23:44:20 71° NW 23:48:23 10° N
Cosmos 1241 Rocket 4.3 23:44:16 60° SSE 23:45:00 65° ESE 23:51:10 10° NE
CZ-2C R/B 3.3 23:44:39 57° S 23:45:52 76° WSW 23:51:40 10° NNW
Cosmos 1992 Rocket 4.2 23:41:18 10° N 23:46:26 55° ENE 23:46:44 54° E
Cosmos 1709 Rocket 3.9 23:42:58 10° N 23:49:11 83° W 23:50:29 58° S
Cosmos 1408 Rocket 4.5 23:51:32 40° NE 23:51:32 40° NE 23:54:50 10° NNE
YAOGAN 11 4.2 23:50:41 72° W 23:50:41 72° W 23:55:10 10° NNW
Cosmos 1766 Rocket 4.1 23:51:52 51° NE 23:51:52 51° NE 23:55:29 10° NNE
